This is the latest recevied weather packets stored in our database for station/object IW4CYE-7. If no packets are shown the sender has not sent any weather packets the latest 10 day(s).
| Time | Temp. | Humidity | Pressure | Rain* | Wind** | Luminosity | Snow |
|---|---|---|---|---|---|---|---|
| 1788197841 | 29.44° C | 51% | 1001.7 hPa | 0 mm | - | - | - |
| 1788197241 | 30° C | 50% | 1001.7 hPa | 0 mm | - | - | - |
| 1788196641 | 30.56° C | 52% | 1001.7 hPa | 0 mm | - | - | - |
| 1788196041 | 30.56° C | 51% | 1002 hPa | 0 mm | - | - | - |
| 1788195441 | 31.11° C | 49% | 1002 hPa | 0 mm | - | - | - |
| 1788194841 | 31.11° C | 49% | 1001.7 hPa | 0 mm | - | - | - |
| 1788194241 | 31.67° C | 49% | 1001.7 hPa | 0 mm | - | - | - |
| 1788193641 | 31.67° C | 48% | 1002 hPa | 0 mm | - | - | - |
| 1788193041 | 31.67° C | 48% | 1001.7 hPa | 0 mm | - | - | - |
| 1788192441 | 32.22° C | 47% | 1001.7 hPa | 0 mm | - | - | - |
| 1788191841 | 32.78° C | 46% | 1002 hPa | 0 mm | - | - | - |
| 1788191241 | 32.78° C | 46% | 1002 hPa | 0 mm | - | - | - |
| 1788190641 | 33.89° C | 44% | 1002 hPa | 0 mm | - | - | - |
| 1788190041 | 33.89° C | 41% | 1002 hPa | 0 mm | - | - | - |
| 1788189441 | 34.44° C | 41% | 1002 hPa | 0 mm | - | - | - |
| 1788188841 | 34.44° C | 40% | 1002 hPa | 0 mm | - | - | - |
| 1788188241 | 35.56° C | 37% | 1002 hPa | 0 mm | - | - | - |
| 1788187641 | 35° C | 38% | 1002 hPa | 0 mm | - | - | - |
| 1788187041 | 35° C | 39% | 1002 hPa | 0 mm | - | - | - |
| 1788186441 | 35° C | 40% | 1002 hPa | 0 mm | - | - | - |
| 1788185841 | 35° C | 38% | 1002 hPa | 0 mm | - | - | - |
| 1788185241 | 35.56° C | 37% | 1002 hPa | 0 mm | - | - | - |
| 1788184641 | 35° C | 39% | 1002 hPa | 0 mm | - | - | - |
| 1788184041 | 34.44° C | 39% | 1002.4 hPa | 0 mm | - | - | - |
| 1788183441 | 35° C | 40% | 1002 hPa | 0 mm | - | - | - |
* Rain latest hour (hover to see other rain measurements)
** Current wind speed in m/s (hover to see current wind gust speed)